User: anonymous   Login
Location: Kennington
(51.1500°N, 0.8833°E)
Time: 09:18:05
(UTC+00:00)
Language:

Cosmos 2297 Rocket - Orbit

View from above orbital plane
View from above orbital plane
View from above satellite
View from above satellite

Ground track
Ground track

The orbit data is extracted from the following two-line orbital elements,

1 23405U 94077B   20336.57624797 -.00000279 +00000-0 -11909-3 0  9995
2 23405 070.9840 079.0686 0004334 237.2604 122.8101 14.15225931343994
Epoch (UTC): 01 December 2020 13:49:47
Eccentricity: 0.0004334
inclination: 70.9840°
perigee height: 838 km
apogee height: 844 km
right ascension of ascending node: 79.0686°
argument of perigee: 237.2604°
revolutions per day: 14.15225931
mean anomaly at epoch: 122.8101°
orbit number at epoch: 34399

The dashed part of the orbit path shows where the satellite is in the earth's shadow,  

DLR